• In Belgien
  • Länderverzeichnis
  • Für 7 Tage
  • Wassertemperatur
  • Satellitenkarten
  • Wetterkarte
  • Widgets
  • user-avatar
    Anmelden

    Stündliche Wetter Gomel

    Heute, 25 Februar, Sonntag

    Zeit Temperatur Niederschläge Wind Luftdruck Luftfeuchtigkeit
    00:00 -21°C° 0 mm 3 m/S 757 mmHg 95%
    01:00 -19°C° 0 mm 2 m/S 757 mmHg 96%
    02:00 -20°C° 0 mm 2 m/S 757 mmHg 96%
    03:00 -21°C° 0 mm 2 m/S 757 mmHg 97%
    04:00 -21°C° 0 mm 2 m/S 757 mmHg 97%
    05:00 -21°C° 0 mm 2 m/S 757 mmHg 98%
    06:00 -21°C° 0 mm 2 m/S 758 mmHg 98%
    07:00 -21°C° 0 mm 2 m/S 758 mmHg 98%
    08:00 -21°C° 0 mm 2 m/S 758 mmHg 97%
    09:00 -19°C° 0 mm 2 m/S 758 mmHg 95%
    10:00 -19°C° 0 mm 3 m/S 758 mmHg 93%
    11:00 -17°C° 0 mm 3 m/S 758 mmHg 91%
    12:00 -16°C° 0 mm 3 m/S 758 mmHg 89%
    13:00 -15°C° 0 mm 3 m/S 758 mmHg 88%
    14:00 -14°C° 0 mm 3 m/S 757 mmHg 86%
    15:00 -14°C° 0 mm 3 m/S 757 mmHg 87%
    16:00 -14°C° 0 mm 2 m/S 757 mmHg 88%
    17:00 -14°C° 0 mm 2 m/S 757 mmHg 90%
    18:00 -15°C° 0 mm 2 m/S 757 mmHg 91%
    19:00 -16°C° 0 mm 2 m/S 758 mmHg 93%
    20:00 -18°C° 0 mm 2 m/S 758 mmHg 94%
    21:00 -18°C° 0 mm 2 m/S 758 mmHg 95%
    22:00 -19°C° 0 mm 2 m/S 758 mmHg 95%
    23:00 -20°C° 0 mm 2 m/S 758 mmHg 96%

    Morgen, 26 Februar, Montag

    Zeit Temperatur Niederschläge Wind Luftdruck Luftfeuchtigkeit
    00:00 -20°C° 0 mm 2 m/S 758 mmHg 96%
    01:00 -21°C° 0 mm 2 m/S 758 mmHg 97%
    02:00 -21°C° 0 mm 2 m/S 758 mmHg 97%
    03:00 -23°C° 0 mm 2 m/S 758 mmHg 97%
    04:00 -23°C° 0 mm 2 m/S 758 mmHg 98%
    05:00 -23°C° 0 mm 2 m/S 758 mmHg 98%
    06:00 -23°C° 0 mm 2 m/S 758 mmHg 98%
    07:00 -23°C° 0 mm 2 m/S 758 mmHg 97%
    08:00 -23°C° 0 mm 2 m/S 758 mmHg 97%
    09:00 -20°C° 0 mm 2 m/S 758 mmHg 94%
    10:00 -17°C° 0 mm 1 m/S 758 mmHg 91%
    11:00 -15°C° 0 mm 1 m/S 759 mmHg 88%
    12:00 -14°C° 0 mm 1 m/S 758 mmHg 86%
    13:00 -13°C° 0 mm 1 m/S 758 mmHg 84%
    14:00 -13°C° 0 mm 1 m/S 758 mmHg 82%
    15:00 -13°C° 0 mm 1 m/S 758 mmHg 84%
    16:00 -14°C° 0 mm 1 m/S 758 mmHg 87%
    17:00 -14°C° 0 mm 1 m/S 758 mmHg 89%
    18:00 -16°C° 0 mm 1 m/S 758 mmHg 91%
    19:00 -17°C° 0 mm 1 m/S 758 mmHg 92%
    20:00 -18°C° 0 mm 1 m/S 758 mmHg 94%
    21:00 -19°C° 0 mm 1 m/S 759 mmHg 94%
    22:00 -21°C° 0 mm 2 m/S 759 mmHg 95%
    23:00 -23°C° 0 mm 2 m/S 759 mmHg 96%

    übermorgen, 27 Februar, Dienstag

    Zeit Temperatur Niederschläge Wind Luftdruck Luftfeuchtigkeit
    00:00 -23°C° 0 mm 2 m/S 759 mmHg 96%
    01:00 -24°C° 0 mm 2 m/S 759 mmHg 96%
    02:00 -24°C° 0 mm 2 m/S 759 mmHg 97%
    03:00 -24°C° 0 mm 2 m/S 759 mmHg 97%
    04:00 -25°C° 0 mm 2 m/S 759 mmHg 97%
    05:00 -25°C° 0 mm 2 m/S 759 mmHg 97%
    06:00 -25°C° 0 mm 3 m/S 760 mmHg 97%
    07:00 -25°C° 0 mm 3 m/S 760 mmHg 96%
    08:00 -25°C° 0 mm 3 m/S 760 mmHg 96%
    09:00 -23°C° 0 mm 3 m/S 760 mmHg 94%
    10:00 -22°C° 0 mm 4 m/S 761 mmHg 92%
    11:00 -20°C° 0 mm 4 m/S 761 mmHg 90%
    12:00 -19°C° 0 mm 4 m/S 760 mmHg 88%
    13:00 -18°C° 0 mm 5 m/S 760 mmHg 87%
    14:00 -17°C° 0 mm 5 m/S 760 mmHg 86%
    15:00 -17°C° 0 mm 6 m/S 760 mmHg 86%
    16:00 -17°C° 0 mm 6 m/S 760 mmHg 86%
    17:00 -18°C° 0 mm 6 m/S 760 mmHg 86%
    18:00 -18°C° 0 mm 6 m/S 760 mmHg 86%
    19:00 -18°C° 0 mm 6 m/S 760 mmHg 86%
    20:00 -19°C° 0 mm 7 m/S 760 mmHg 86%
    21:00 -20°C° 0 mm 7 m/S 760 mmHg 86%
    22:00 -20°C° 0 mm 7 m/S 759 mmHg 85%
    23:00 -20°C° 0 mm 7 m/S 759 mmHg 85%

    28 Februar, Mittwoch

    Zeit Temperatur Niederschläge Wind Luftdruck Luftfeuchtigkeit
    00:00 -21°C° 0,1 mm 8 m/S 759 mmHg 86%
    01:00 -21°C° 0,1 mm 8 m/S 758 mmHg 86%
    02:00 -21°C° 0,1 mm 8 m/S 758 mmHg 86%
    03:00 -21°C° 0,4 mm 8 m/S 758 mmHg 87%
    04:00 -21°C° 0,4 mm 8 m/S 757 mmHg 89%
    05:00 -21°C° 0,4 mm 8 m/S 757 mmHg 90%
    06:00 -21°C° 0,4 mm 8 m/S 756 mmHg 90%
    07:00 -21°C° 0,4 mm 8 m/S 756 mmHg 90%
    08:00 -21°C° 0,4 mm 8 m/S 756 mmHg 89%
    09:00 -19°C° 0,3 mm 8 m/S 756 mmHg 89%
    10:00 -19°C° 0,3 mm 8 m/S 756 mmHg 89%
    11:00 -18°C° 0,3 mm 8 m/S 755 mmHg 89%
    12:00 -17°C° 0,3 mm 7 m/S 755 mmHg 89%
    13:00 -17°C° 0,3 mm 7 m/S 754 mmHg 89%
    14:00 -15°C° 0,3 mm 7 m/S 754 mmHg 89%
    15:00 -17°C° 0,2 mm 7 m/S 754 mmHg 89%
    16:00 -16°C° 0,2 mm 6 m/S 754 mmHg 89%
    17:00 -16°C° 0,2 mm 6 m/S 753 mmHg 89%
    18:00 -16°C° 0,2 mm 6 m/S 753 mmHg 90%
    19:00 -16°C° 0,2 mm 6 m/S 753 mmHg 90%
    20:00 -17°C° 0,2 mm 6 m/S 753 mmHg 91%
    21:00 -17°C° 0,2 mm 6 m/S 753 mmHg 91%
    22:00 -17°C° 0,2 mm 5 m/S 753 mmHg 91%
    23:00 -17°C° 0,2 mm 5 m/S 753 mmHg 92%

    1 März, Donnerstag

    Zeit Temperatur Niederschläge Wind Luftdruck Luftfeuchtigkeit
    00:00 -15°C° 0,2 mm 5 m/S 753 mmHg 92%
    01:00 -15°C° 0,2 mm 5 m/S 753 mmHg 92%
    02:00 -15°C° 0,2 mm 5 m/S 754 mmHg 92%
    03:00 -15°C° 0,1 mm 5 m/S 754 mmHg 92%
    04:00 -14°C° 0,1 mm 5 m/S 754 mmHg 93%
    05:00 -14°C° 0,1 mm 4 m/S 754 mmHg 93%
    06:00 -14°C° 0,1 mm 4 m/S 754 mmHg 93%
    07:00 -14°C° 0,1 mm 4 m/S 754 mmHg 93%
    08:00 -15°C° 0,1 mm 4 m/S 754 mmHg 94%
    09:00 -14°C° 0 mm 4 m/S 754 mmHg 92%
    10:00 -12°C° 0 mm 4 m/S 754 mmHg 90%
    11:00 -10°C° 0 mm 3 m/S 754 mmHg 88%
    12:00 -10°C° 0,1 mm 4 m/S 754 mmHg 89%
    13:00 -10°C° 0,1 mm 4 m/S 753 mmHg 90%
    14:00 -9°C° 0,1 mm 4 m/S 752 mmHg 90%
    15:00 -10°C° 0,4 mm 5 m/S 752 mmHg 91%
    16:00 -10°C° 0,4 mm 5 m/S 752 mmHg 92%
    17:00 -11°C° 0,4 mm 5 m/S 751 mmHg 93%
    18:00 -11°C° 0,4 mm 5 m/S 751 mmHg 93%
    19:00 -11°C° 0,4 mm 5 m/S 750 mmHg 93%
    20:00 -11°C° 0,4 mm 5 m/S 750 mmHg 93%
    21:00 -11°C° 0,2 mm 5 m/S 750 mmHg 93%
    22:00 -10°C° 0,2 mm 4 m/S 749 mmHg 93%
    23:00 -10°C° 0,2 mm 4 m/S 749 mmHg 93%

    2 März, Freitag

    Zeit Temperatur Niederschläge Wind Luftdruck Luftfeuchtigkeit
    00:00 -10°C° 0,3 mm 4 m/S 748 mmHg 93%
    01:00 -10°C° 0,3 mm 4 m/S 748 mmHg 93%
    02:00 -11°C° 0,3 mm 4 m/S 748 mmHg 94%
    03:00 -11°C° 0,3 mm 4 m/S 747 mmHg 94%
    04:00 -11°C° 0,3 mm 4 m/S 747 mmHg 94%
    05:00 -11°C° 0,3 mm 4 m/S 746 mmHg 94%
    06:00 -11°C° 0,2 mm 4 m/S 746 mmHg 94%
    07:00 -10°C° 0,2 mm 4 m/S 746 mmHg 93%
    08:00 -10°C° 0,2 mm 4 m/S 746 mmHg 93%
    09:00 -10°C° 0,2 mm 4 m/S 746 mmHg 92%
    10:00 -9°C° 0,2 mm 4 m/S 746 mmHg 91%
    11:00 -8°C° 0,2 mm 4 m/S 746 mmHg 90%
    12:00 -7°C° 0,2 mm 3 m/S 746 mmHg 90%
    13:00 -6°C° 0,2 mm 3 m/S 745 mmHg 89%
    14:00 -6°C° 0,2 mm 3 m/S 745 mmHg 89%
    15:00 -6°C° 0,2 mm 3 m/S 746 mmHg 90%
    16:00 -6°C° 0,2 mm 3 m/S 746 mmHg 91%
    17:00 -6°C° 0,2 mm 3 m/S 746 mmHg 93%
    18:00 -6°C° 0,1 mm 2 m/S 746 mmHg 94%
    19:00 -6°C° 0,1 mm 2 m/S 746 mmHg 95%
    20:00 -7°C° 0,1 mm 2 m/S 746 mmHg 96%
    21:00 -7°C° 0,1 mm 2 m/S 746 mmHg 96%
    22:00 -7°C° 0,1 mm 2 m/S 746 mmHg 96%
    23:00 -7°C° 0,1 mm 2 m/S 746 mmHg 97%
    Mehr zeigen